Back to catalog

STARLINK-34054

AliveCommunicationsVLEO
NORAD 64141·PAYLOAD·🇺🇸 United States

Launched May 24, 2025 from Cape Canaveral Space Force Station

Loading…

Next Passes (next 24 hours)

TLE

FreshSource: CelesTrak SupGP

Epoch: Sep 14, 2026, 15:03 UTC

1 64141C 25111U   26257.62756944 -.00022252  00000+0 -80545-3 0  2577
2 64141  43.0023  90.7751 0001170 259.3691 323.1783 15.27611248    18

Track STARLINK-34054 in real time with AllMySat

Download on the App Store